Home   Weather   51°16'N, 7°09'E   Past weeks
Flag for Germany

Past Weather in 51°16'N, 7°09'E, Germany — Yesterday and Last 2 Weeks

Now
54 °F

Clear.


Feels Like: 51 °F
Forecast: 71 / 47 °F
Wind: 8 mph from Southwest

Location: Duesseldorf

Current Time: Aug 20, 2019 at 5:04:21 am

Latest Report: Aug 20, 2019 at 3:50 am


Visibility: 10 mi

Pressure: 30.12 "Hg

Humidity: 88%

Dew Point: 50 °F

Location of 51°16'N, 7°09'ELocation

Past Weather in 51°16'N, 7°09'E — Graph

°F

51°16'N, 7°09'E Temperature Yesterday

Maximum temperature yesterday: 73 °F (at 3:50 pm)
Minimum temperature yesterday: 55 °F (at 4:50 am)
Average temperature yesterday: 64 °F

High & Low Weather Summary for the Past Weeks

 TemperatureHumidityPressure
High81 °F (Aug 5, 2:50 pm)100% (Aug 12, 10:50 pm)30.12 "Hg (Aug 12, 10:50 pm)
Low50 °F (Aug 14, 2:20 am)33% (Aug 14, 5:50 pm)29.65 "Hg (Aug 18, 10:50 am)
Average67 °F69%29.89 "Hg
* Reported Aug 5 3:20 am — Aug 20 3:20 am, 51°16'N, 7°09'E. Weather by CustomWeather, © 2019

Note: Actual official high and low records may vary slightly from our data, if they occured in-between our weather recording intervals... More about our weather records

Advertising

51°16'N, 7°09'E Weather History for the Previous 24 Hours

Scroll right to see more
 ConditionsComfort  
Time TempWeatherWind HumidityBarometerVisibility
3:20 am
Tue, Aug 20
55 °FClear.8 mph88%30.12 "Hg10 mi
2:50 am57 °FClear.7 mph82%30.12 "Hg10 mi
2:20 am57 °FClear.7 mph82%30.12 "Hg10 mi
1:50 am57 °FClear.8 mph82%30.12 "Hg10 mi
1:20 am59 °FClear.8 mph77%30.12 "Hg10 mi
12:50 am61 °FClear.10 mph77%30.12 "Hg10 mi
12:20 am61 °FClear.7 mph77%30.09 "Hg10 mi
11:50 pm
Mon, Aug 19
61 °FClear.7 mph72%30.09 "Hg10 mi
11:20 pm61 °FClear.6 mph72%30.09 "Hg10 mi
10:50 pm63 °FClear.7 mph68%30.09 "Hg10 mi
10:20 pm64 °FClear.6 mph64%30.09 "Hg10 mi
9:50 pm66 °FLight rain. Clear.10 mph60%30.07 "HgN/A
9:20 pm66 °FClear.8 mph60%30.07 "Hg10 mi
8:50 pm66 °FClear.8 mph60%30.07 "Hg10 mi
8:20 pm68 °FSunny.7 mph56%30.04 "Hg10 mi
7:50 pm70 °FSunny.9 mph50%30.04 "Hg10 mi
7:20 pm70 °FSunny.13 mph46%30.04 "Hg10 mi
6:50 pm72 °FSunny.16 mph44%30.04 "Hg10 mi
6:20 pm72 °FSunny.14 mph44%30.04 "Hg10 mi
5:50 pm72 °FSunny.15 mph44%30.04 "Hg10 mi
5:20 pm72 °FSunny.14 mph44%30.04 "Hg10 mi
4:50 pm73 °FSunny.16 mph41%30.04 "Hg10 mi
4:20 pm73 °FPassing clouds.14 mph41%30.04 "HgN/A
3:50 pm73 °FPassing clouds.16 mph44%30.04 "HgN/A
3:20 pm70 °FSunny.15 mph50%30.04 "Hg10 mi
2:50 pm70 °FSunny.14 mph50%30.04 "Hg10 mi
1:50 pm70 °FScattered clouds.16 mph53%30.01 "HgN/A
1:20 pm70 °FPassing clouds.17 mph53%30.01 "HgN/A
12:50 pm70 °FPassing clouds.16 mph53%30.01 "HgN/A
12:20 pm68 °FPassing clouds.15 mph56%30.01 "HgN/A
11:50 am66 °FPassing clouds.16 mph60%30.01 "HgN/A
11:20 am64 °FPassing clouds.15 mph68%30.01 "HgN/A
10:50 am64 °FPassing clouds.17 mph68%30.01 "HgN/A
10:20 am64 °FPassing clouds.14 mph68%29.98 "HgN/A
9:50 am64 °FPassing clouds.16 mph68%29.98 "HgN/A
9:20 am63 °FSunny.13 mph73%29.98 "Hg10 mi
8:50 am61 °FSunny.14 mph77%29.98 "Hg10 mi
8:20 am61 °FSunny.12 mph77%29.98 "Hg10 mi
7:50 am59 °FSunny.9 mph82%29.98 "Hg10 mi
7:20 am59 °FSunny.10 mph77%29.95 "Hg10 mi
6:50 am57 °FSunny.10 mph82%29.95 "Hg10 mi
6:20 am57 °FClear.13 mph82%29.95 "Hg10 mi
5:50 am57 °FClear.13 mph82%29.95 "Hg10 mi
5:20 am57 °FClear.14 mph82%29.92 "Hg10 mi
Weather by CustomWeather, © 2019

See weather overview